Other Public Products
Issued by NWS Grand Forks, ND

Home | Current Version | Previous Version | Text Only | Print | Product List | Glossary On
Versions: 1 2 3 4 5 6 7 8 9 10 11 12 13 14 15 16 17 18 19 20 21 22 23 24 25 26 27 28 29 30 31 32 33 34 35 36 37 38 39 40 41 42 43 44 45 46 47 48 49 50
000
FPUS83 KFGF 270231
OPUFGF
PRAIRIE TO PINES WEATHER ROUNDUP
NATIONAL WEATHER SERVICE EASTERN NORTH DAKOTA/GRAND FORKS ND
900 PM CDT WED JUL 26 2017

 **SATELLITE DATA USED TO AUGMENT SKY COVER AT AUTOMATED STATIONS**
 *****  WEATHER ACROSS EASTERN NORTH DAKOTA  *****

CITY           SKY/WX    TMP DP  RH WIND       PRES   REMARKS
GRAND FORKS    FAIR      73  63  70 NW3       30.06R
GRAND FORKS AF FAIR      70  61  73 N3        30.07S
GRAND CITY NWS NOT AVBL
BUXTON           N/A     71  65  83 NW5         N/A
DEVILS LAKE    FAIR      73  58  59 NE3       30.12R
FARGO          FAIR      73  61  65 N6        30.05S
WAHPETON ARPT  FAIR      70  59  68 N7        30.07R
$$

 *****  WEATHER ACROSS CENTRAL AND WESTERN NORTH DAKOTA  *****

CITY           SKY/WX    TMP DP  RH WIND       PRES   REMARKS
JAMESTOWN      FAIR      72  61  68 N5        30.10R
BISMARCK       FAIR      79  52  38 E8        30.09S
MINOT          FAIR      76  55  48 NE6       30.10S
MINOT AFB      FAIR      77  54  44 E7        30.09S
GARRISON         N/A     77  53  43 E8        30.10S
WILLISTON      FAIR      86  48  26 E9        30.05S
DICKINSON      FAIR      77  55  46 E9        30.08R
HETTINGER      FAIR      81  51  35 SE13      30.10S
$$

 *****  OTHER OBSERVATIONS NORTHEAST NORTH DAKOTA  *****

CITY           SKY/WX    TMP DP  RH WIND       PRES   REMARKS
WALHALLA       NOT AVBL
LANGDON        FAIR      68  66  94 CALM      30.12R
CAVALIER       FAIR      70  64  83 CALM      30.07R
GRAFTON        FAIR      72  63  73 NW3       30.09R
CANDO          NOT AVBL
FORT TOTTEN      N/A     73  60  63 CALM      29.95
ROLLA            N/A     68  63  83 CALM      30.13S
RUGBY          NOT AVBL
 ***** THE ABOVE OBSERVATIONS ARE NON NWS ARE NOT QUALITY
        CONTROLLED AND MAY MIS-REPORT RAIN FOR SNOW...
$$

 *****  OTHER OBSERVATIONS SOUTHEAST NORTH DAKOTA *****

CITY           SKY/WX    TMP DP  RH WIND       PRES   REMARKS
COOPERSTOWN    FAIR      70  64  83 N5        30.11R
VALLEY CITY    FAIR      72  63  73 CALM      30.11R
OAKES          NOT AVBL
GWINNER        CLEAR     70  63  78 CALM      30.09R
SHEYENNE NWR     N/A     75  60  58 N3        29.95S
BUFFALO          N/A     71  55  57 CALM        N/A
WYNDMERE       NOT AVBL
 ***** THE ABOVE OBSERVATIONS ARE NON NWS ARE NOT QUALITY
       CONTROLLED AND MAY MIS-REPORT RAIN FOR SNOW...
$$

  *****  WEATHER ACROSS NORTHERN MINNESOTA  *****

CITY           SKY/WX    TMP DP  RH WIND       PRES   REMARKS
FLAG ISLAND    FAIR      73  61  64 W5        30.03R HAZE
WARROAD        FAIR      70  61  73 NW3       30.06R
ROSEAU         FAIR      70  63  78 W3        30.06R
HALLOCK        FAIR      72  63  73 NW5       30.06S
THF RVR FALLS  FAIR      70  61  73 NW6       30.07S
HALSTAD          N/A     67  63  84 N7          N/A
FOSSTON        FAIR      66  57  72 NW3       30.08R
BAUDETTE       FAIR      69  63  81 CALM      30.03R
WASKISH        FAIR      70  61  73 CALM      30.05R
CROOKSTON      FAIR      70  64  83 NW3       30.07R
$$
  *****  WEATHER ACROSS CENTRAL AND WEST MINNESOTA  *****

CITY           SKY/WX    TMP DP  RH WIND       PRES   REMARKS
BEMIDJI        FAIR      69  58  68 NW5       30.06S
PARK RAPIDS    FAIR      71  60  68 NW5       30.06R
WADENA         FAIR      66  61  82 N3        30.06R
DETROIT LAKES  FAIR      70  63  78 NW5       30.08S
MOORHEAD       FAIR      68  61  77 N3        30.07R
FERGUS FALLS   FAIR      70  61  73 N6        30.05S
ELBOW LAKE     FAIR      73  64  73 N5        30.06S
MORRIS MN      FAIR      72  64  78 NW6       30.05S
STAPLES        FAIR      70  61  73 CALM      30.05R
WHEATON        FAIR      72  63  73 N3        30.08R
$$
  *****  WEATHER ELSEWHERE ACROSS MINNESOTA  *****

CITY           SKY/WX    TMP DP  RH WIND       PRES   REMARKS
DULUTH         FAIR      70  61  73 NW5       30.01R
INTRNTL FALLS  FAIR      65  61  87 CALM      30.02R
ELY            FAIR      66  57  72 CALM      30.03R
CLOQUET        FAIR      70  57  64 NW3       30.02R
BRAINERD       FAIR      73  61  65 CALM      30.03S
HIBBING        FAIR      66  59  78 NW3       30.02R
ALEXANDRIA     FAIR      72  62  71 NW6       30.07R
SAINT CLOUD    FAIR      72  64  76 NW5       30.01S
MINNEAPOLIS    FAIR      77  60  55 N7        30.00R
$$

  *****  WEATHER ACROSS SOUTH DAKOTA  *****

CITY           SKY/WX    TMP DP  RH WIND       PRES   REMARKS
SIOUX FALLS    FAIR      71  64  78 N5        30.06R
BROOKINGS      FAIR      74  60  61 NE3       30.08R
WATERTOWN      FAIR      71  61  70 NE7       30.08R
HURON          FAIR      76  60  57 NE5       30.07R
SISSETON         N/A     73  65  75 N3        30.05S
ABERDEEN       FAIR      75  62  64 E3        30.08R
MITCHELL       FAIR      75  66  73 NE3       30.07R
PIERRE         FAIR      80  54  40 E7        30.07R
MOBRIDGE       FAIR      77  62  59 E7        30.06S
RAPID CITY     MOCLDY    80  50  34 E9        30.13R
$$

  *****  SOME WEATHER IN NEARBY STATES *****

CITY           SKY/WX    TMP DP  RH WIND       PRES   REMARKS
GLASGOW MT     MOCLDY    88  43  20 E13       29.99S
GREAT FALLS MT FAIR      87  36  16 E8        30.00S
CHEYENNE WY    CLOUDY    69  56  62 E8        30.31R
SCOTTSBLUFF NE CLOUDY    77  61  57 E3        30.18R
OMAHA NE       MOCLDY    75  72  90 N5        29.98S
DES MOINES IA  CLOUDY    76  74  93 N3        29.96F
DAVENPORT IA   CLOUDY    72  71  97 CALM      29.98S
CHICAGO IL     CLOUDY    79  70  74 S8        29.97S
EAU CLAIRE WI  FAIR      70  65  84 NW5       29.98R
LA CROSSE WI   FAIR      78  72  81 NW3       29.97R
$$

  *****  SOME NATIONAL WEATHER *****

CITY           SKY/WX    TMP DP  RH WIND       PRES   REMARKS
LA GUARDIA NY  MOCLDY    70  58  65 S10       30.14S
RALEIGH NC     MOCLDY    82  68  62 S7        30.09R
ATLANTA GA     FAIR      77  67  71 SE5       30.09R
NEW ORLEANS LA FAIR      84  74  71 CALM      30.06R HX  91
OKLAHOMA CITY  MOCLDY    88  70  55 S15G22    29.96R HX  93
ALBUQUERQUE NM MOCLDY    91  51  25 SW9       30.12R
SALT LAKE CITY MOCLDY    85  58  39 N10       30.09R
LOS ANGELES CA FAIR      70  64  81 W14       29.94S
BOISE ID       FAIR      84  53  34 W6        30.00F
SEATTLE WA     FAIR      80  55  42 W6        30.03S
$$

*** WEATHER ACROSS MANITOBA...SASKATCHEWAN AND ONTARIO ***
                ***ONTARIO***

CITY           SKY/WX    TMP DP  RH WIND       PRES   REMARKS
GERALDTON      MOCLDY    68  57  68 N6        29.93R
THUNDER BAY    MOCLDY    73  57  56 NW3       29.94R
SIOUX LOOKOUT  PTCLDY    61  59  94 CALM      29.99R
TORONTO        LGT RAIN  66  63  88 SE5       30.02R
BIG TROUT LK   CLOUDY    64  52  63 NW3       29.95R
PICKLE LAKE    PTCLDY    70  55  60 NE6       29.96R
DRYDEN         MOCLDY    72  59  64 W5        30.00R
KENORA         PTCLDY    72  59  64 W7        30.03R
$$
                *** MANITOBA***

CITY           SKY/WX    TMP DP  RH WIND       PRES   REMARKS
BRANDON        PTCLDY    70  64  83 W6        30.08S
DAUPHIN        CLEAR     72  64  78 W5        30.05S
ISLAND LAKE    NOT AVBL
PILOT MOUND      N/A     72  59  64 W3          N/A
THE PAS        CLOUDY    75  61  60 W9        30.01S
THOMPSON       PTCLDY    73  54  49 N3        29.97S
WINNIPEG       PTCLDY    68  64  88 W6        30.05R
LYNN LAKE      LGT RAIN  66  59  77 W21G30    29.98R
CHURCHILL      PTCLDY    66  55  68 S6        29.89F
GILLAM         PTCLDY    68  54  60 SW3       29.95S
$$
                ***SASKATCHEWAN***

CITY           SKY/WX    TMP DP  RH WIND       PRES   REMARKS
ESTEVAN        PTCLDY    73  57  56 NE3       30.09
KINDERSLEY     CLEAR     75  54  46 E12       30.02S
LLOYDMINSTER   MOSUNNY   72  57  60 E9        30.01F
PRINCE ALBERT  MOCLDY    72  59  64 S5        30.05F
REGINA         CLEAR     79  48  34 SE8       30.06F
YORKTON        CLEAR     73  63  68 NE5       30.09S


USA.gov is the U.S. government's official web portal to all federal, state and local government web resources and services.